sat.trackr.live / text

‹ back to catalog

STARLINK-31186

NORAD 59030 · 2024-038H

PAYLOAD ACTIVE UNKNOWN

§ Identity

Operator
Country
US
Launch date
2024-02-25
Launch site
AFETR
Launch vehicle
Mass (kg)
RCS (m²)

Purposes: comms

External: N2YO · Heavens-Above · Gunter

§ Orbital elements

Epoch: 2026-09-20T14:14:57.077088Z

Period
94.27 min
Inclination
43.0084°
Eccentricity
0.0001656
Mean motion
15.27601406 rev/d
Perigee alt
481.8 km
Apogee alt
484.1 km
Semi-major
6,861.1 km
B*
6.1675e-5
RAAN
6.5271°
Arg perigee
286.6054°
Mean anomaly
73.4615°
Rev number
14,456

§ Raw data

STARLINK-311861 59030U 24038H   26263.59371617  .00001436  00000+0  61675-4 0  99942 59030  43.0084   6.5271 0001656 286.6054  73.4615 15.27601406144566

JSON: /api/v1/satellites/59030 · /tle

For live sub-satellite position, see the globe view (requires WebGL).

§ Visibility from observer

Set your observer location to see the next 7 days of passes ≥ 10°. The values pass through the URL so the page stays shareable.

No JS? Fill the form by hand. The geolocation button needs JavaScript.